Regional Weather Roundup
Issued by NWS

Home | Current Version | Previous Version | Graphics & Text | Print | Product List | Glossary On
Versions: 1 2 3 4 5 6 7 8 9 10 11 12 13 14 15 16 17 18 19 20 21 22 23 24 25 26 27 28 29 30 31 32 33 34 35 36 37 38 39 40 41 42 43 44 45 46 47 48 49 50
000
ASUS45 KABQ 280910
RWRNM
WEATHER ROUNDUP FOR NEW MEXICO
NATIONAL WEATHER SERVICE ALBUQUERQUE NM
300 AM MDT MON JUL 28 2014

NOTE: "FAIR" MEANS FEW OR NO CLOUDS BELOW 12,000 FEET AGL WITH NO
       SIGNIFICANT WEATHER OR OBSTRUCTIONS TO VISION.

      THIS PRODUCT IS RELEASED AS TWO VERSIONS.  ONE VERSION NEAR
      THE TOP OF THE HOUR CONTAINING PRELIMINARY DATA FROM ALBUQUERQUE
      AND OTHER STATIONS.  A FINAL VERSION WITH ADDITIONAL DATA IS
      ISSUED ABOUT 10 MINUTES AFTER THE HOUR.

NMZ501-503-504-510>518-281000-
NORTHWEST PLATEAU/NORTHCENTRAL MOUNTAINS

CITY           SKY/WX    TMP DP  RH WIND       PRES   REMARKS
FARMINGTON     LGT RAIN  66  60  81 E7        30.39R
LOS ALAMOS     CLOUDY    59  51  74 N9        30.50F
SANTA FE       CLOUDY    61  56  83 N15       30.42S
TAOS           CLOUDY    57  54  88 CALM      30.52S
ANGEL FIRE     PTSUNNY   53  52  94 SE3       30.61F

$$
NMZ402-403-502-505>509-281000-
WESTCENTRAL MOUNTAINS/SOUTHWEST MOUNTAINS

CITY           SKY/WX    TMP DP  RH WIND       PRES   REMARKS
GALLUP         MOCLDY    60  54  80 NE14      30.42F
SILVER CITY    CLOUDY    72  54  53 NW9       30.31F

$$
NMZ407-409-411-412-281000-
SOUTHERN DESERTS

CITY           SKY/WX    TMP DP  RH WIND       PRES   REMARKS
LORDSBURG      CLOUDY    70  61  73 NW8       30.24F
DEMING         CLOUDY    72  61  68 NW5       30.20R
LAS CRUCES     CLOUDY    72  60  66 N8        30.21S
HOLLOMAN AFB   DRIZZLE   70  64  83 SE3       30.23R
ALAMOGORDO     TSTM      70  63  78 S8        30.25R
T OR C         LGT RAIN  71  61  70 NW12      30.27S

$$
NMZ519>523-281000-
CENTRAL VALLEYS/CENTRAL HIGHLANDS

CITY           SKY/WX    TMP DP  RH WIND       PRES   REMARKS
ALBUQUERQUE    PTCLDY    71  56  58 N8        30.34S
DOUBLE EAGLE   MOCLDY    65  56  72 N16       30.39S
MORIARTY ARPT  FAIR      62  51  67 N7        30.42F
CLINES CORNERS PTCLDY    59  50  72 E9        30.45S
BELEN          PTSUNNY   72  55  55 N15       30.31R
SOCORRO        FAIR      74  53  48 CALM      30.27S

$$
NMZ524>526-539-540-281000-
SOUTHCENTRAL MOUNTAINS

CITY           SKY/WX    TMP DP  RH WIND       PRES   REMARKS
RUIDOSO        CLOUDY    57  52  82 E15       30.45R THUNDER

$$
NMZ527>531-281000-
NORTHEAST HIGHLANDS/NORTHEAST PLAINS

CITY           SKY/WX    TMP DP  RH WIND       PRES   REMARKS
LAS VEGAS      CLOUDY    57  54  89 N10       30.48F
RATON          NOT AVBL
CLAYTON        TSTM      60  58  92 NE5       30.42F FOG

$$
NMZ532>537-281000-
EASTCENTRAL PLAINS

CITY           SKY/WX    TMP DP  RH WIND       PRES   REMARKS
TUCUMCARI      CLOUDY    71  60  68 N21G30    30.30F
CANNON AFB     PTCLDY    72  61  68 NE10      30.29R
CLOVIS AIRPORT NOT AVBL

$$
NMZ028-029-538-281000-
SOUTHEAST PLAINS

CITY           SKY/WX    TMP DP  RH WIND       PRES   REMARKS
ROSWELL        PTCLDY    80  55  42 CALM      30.16S
ARTESIA        CLEAR     81  59  47 SE8       30.15S
CARLSBAD       PTCLDY    83  57  41 SE8       30.13R
HOBBS          PTCLDY    75  57  53 S7        30.18S


$$



USA.gov is the U.S. government's official web portal to all federal, state and local government web resources and services.